TimePDT,TemperatureF,Dew PointF,Humidity,Sea Level PressureIn,VisibilityMPH,Wind Direction,Wind SpeedMPH,Gust SpeedMPH,PrecipitationIn,Events,Conditions,WindDirDegrees,DateUTC
12:53 AM,51.1,50.0,96,29.77,4.0,SE,6.9,-,0.01,,Overcast,140,2012-10-29 07:53:00
1:53 AM,51.1,50.0,96,29.74,4.0,SE,12.7,-,0.23,Rain,Rain,130,2012-10-29 08:53:00
2:01 AM,51.8,50.0,94,29.73,6.0,SE,13.8,-,0.02,Rain,Light Rain,140,2012-10-29 09:01:00
2:53 AM,55.0,53.1,93,29.74,10.0,South,8.1,-,0.03,,Mostly Cloudy,170,2012-10-29 09:53:00
3:42 AM,55.4,53.6,94,29.74,2.5,SE,8.1,-,0.01,Rain,Light Rain,140,2012-10-29 10:42:00
3:47 AM,55.4,53.6,94,29.74,3.0,SE,9.2,-,0.02,Rain,Light Rain,130,2012-10-29 10:47:00
3:53 AM,54.0,53.1,97,29.73,3.0,SE,9.2,-,0.02,Rain,Light Rain,140,2012-10-29 10:53:00
4:15 AM,55.4,53.6,94,29.74,2.0,SE,10.4,-,0.08,Rain,Rain,140,2012-10-29 11:15:00
4:33 AM,55.4,55.4,100,29.74,2.0,SE,8.1,-,N/A,Rain,Light Rain,140,2012-10-29 11:33:00
4:53 AM,57.9,55.9,93,29.74,3.0,South,10.4,-,0.14,Rain,Light Rain,170,2012-10-29 11:53:00
5:53 AM,60.1,57.0,90,29.75,3.0,South,11.5,-,0.08,Rain,Light Rain,170,2012-10-29 12:53:00
6:53 AM,60.1,57.0,90,29.76,3.0,South,12.7,23.0,0.03,Rain,Light Rain,170,2012-10-29 13:53:00
7:53 AM,60.1,55.9,86,29.80,9.0,South,13.8,24.2,0.01,Rain,Light Rain,180,2012-10-29 14:53:00
8:53 AM,59.0,55.0,87,29.84,10.0,South,16.1,24.2,0.02,,Overcast,190,2012-10-29 15:53:00
9:53 AM,59.0,54.0,83,29.89,10.0,SSW,11.5,18.4,0.00,,Overcast,200,2012-10-29 16:53:00
10:53 AM,57.9,55.0,90,29.92,9.0,South,10.4,-,0.00,Rain,Light Rain,180,2012-10-29 17:53:00
11:09 AM,59.0,53.6,82,29.93,10.0,South,13.8,21.9,0.00,,Mostly Cloudy,190,2012-10-29 18:09:00
11:53 AM,60.1,53.1,78,29.95,10.0,South,17.3,24.2,0.00,,Mostly Cloudy,190,2012-10-29 18:53:00
12:53 PM,59.0,53.1,81,29.96,10.0,South,15.0,26.5,N/A,,Mostly Cloudy,180,2012-10-29 19:53:00
1:53 PM,59.0,52.0,78,29.97,10.0,South,15.0,26.5,N/A,,Mostly Cloudy,190,2012-10-29 20:53:00
2:53 PM,60.1,52.0,75,29.99,10.0,SSW,10.4,19.6,N/A,,Scattered Clouds,200,2012-10-29 21:53:00
3:53 PM,60.1,51.1,72,30.00,10.0,South,12.7,-,N/A,,Scattered Clouds,190,2012-10-29 22:53:00
4:53 PM,59.0,51.1,75,30.01,10.0,South,11.5,-,N/A,,Mostly Cloudy,190,2012-10-29 23:53:00
5:53 PM,57.9,52.0,81,30.01,10.0,South,6.9,-,0.00,Rain,Light Rain,180,2012-10-30 00:53:00
6:53 PM,57.0,52.0,83,30.01,10.0,SW,11.5,-,N/A,,Overcast,220,2012-10-30 01:53:00
7:53 PM,55.9,52.0,87,30.01,10.0,ESE,5.8,-,N/A,,Mostly Cloudy,120,2012-10-30 02:53:00
8:53 PM,55.9,53.1,90,30.00,10.0,East,4.6,-,N/A,,Overcast,100,2012-10-30 03:53:00
9:13 PM,55.4,53.6,94,29.99,10.0,East,4.6,-,N/A,,Overcast,100,2012-10-30 04:13:00
9:53 PM,55.0,52.0,89,29.99,10.0,SE,3.5,-,N/A,,Partly Cloudy,130,2012-10-30 04:53:00
10:30 PM,55.4,51.8,88,29.99,10.0,SE,3.5,-,N/A,,Mostly Cloudy,130,2012-10-30 05:30:00
10:53 PM,55.0,53.1,93,29.99,10.0,SE,4.6,-,N/A,,Overcast,130,2012-10-30 05:53:00
11:53 PM,55.4,53.6,94,29.98,10.0,Calm,Calm,-,N/A,,Overcast,0,2012-10-30 06:53:00